EW3719 Weather Reports


Display with metric or nautical units.
time (UTC)temp
F
wind
direction
speed
MPH
gust
MPH
rain 1hr
in
rain 24hr
in
rain mn
in
humidity
%
barometer
mb
20260903170133 77 258 8.0 16.0 0.00 0.26 0.00 74 1011.5
20260903164552 77 233 6.0 14.0 0.00 0.26 0.00 75 1011.6
20260903163045 77 217 8.0 14.0 0.00 0.26 0.00 73 1011.7
20260903161553 77 253 8.0 14.0 0.00 0.26 0.00 72 1011.8
20260903160045 76 245 6.0 14.0 0.00 0.26 0.00 77 1011.9
20260903154549 75 250 7.0 13.0 0.00 0.26 0.00 80 1012.0
20260903153035 75 229 7.0 11.0 0.00 0.26 0.00 83 1012.2
20260903151544 74 239 8.0 12.0 0.00 0.26 0.00 83 1012.2
20260903150040 74 228 4.0 13.0 0.00 0.26 0.00 84 1012.2
20260903144531 74 244 5.0 12.0 0.00 0.26 0.00 84 1012.2
20260903143034 73 278 7.0 12.0 0.00 0.26 0.00 83 1012.2
20260903141530 73 267 5.0 10.0 0.00 0.26 0.00 85 1012.1
20260903140038 72 233 6.0 12.0 0.00 0.26 0.00 86 1012.1
20260903134523 72 278 7.0 10.0 0.00 0.26 0.00 89 1012.2
20260903133021 71 266 6.0 13.0 0.00 0.26 0.00 89 1012.1
20260903131519 71 262 8.0 14.0 0.00 0.26 0.00 91 1012.1
20260903130023 71 231 6.0 12.0 0.00 0.26 0.00 92 1012.1
20260903124516 71 239 8.0 14.0 0.00 0.26 0.00 92 1012.1
20260903123028 70 235 5.0 9.0 0.00 0.26 0.00 93 1012.0
20260903121514 70 262 3.0 11.0 0.00 0.26 0.00 94 1011.9
20260903120012 70 210 4.0 8.0 0.00 0.26 0.00 96 1011.9
20260903114511 70 262 3.0 7.0 0.00 0.26 0.00 97 1011.8
20260903113019 70 236 2.0 6.0 0.00 0.26 0.00 97 1011.8
20260903111509 70 237 3.0 6.0 0.00 0.26 0.00 97 1011.7
20260903110007 69 251 3.0 8.0 0.00 0.26 0.00 97 1011.5
20260903104506 69 233 3.0 6.0 0.00 0.26 0.00 97 1011.4
20260903103005 69 236 3.0 6.0 0.00 0.26 0.00 97 1011.3
20260903101503 70 254 4.0 9.0 0.00 0.26 0.00 97 1011.0
20260903100002 70 231 7.0 12.0 0.00 0.26 0.00 96 1011.1
20260903094502 70 238 6.0 11.0 0.00 0.26 0.00 97 1011.2
20260903093003 70 221 5.0 10.0 0.00 0.26 0.00 97 1011.1
20260903091500 70 241 5.0 9.0 0.00 0.26 0.00 97 1011.0
20260903090101 70 221 4.0 8.0 0.00 0.26 0.00 97 1010.9
20260903084617 70 245 3.0 7.0 0.00 0.26 0.00 97 1010.9
20260903083104 70 235 3.0 8.0 0.00 0.26 0.00 97 1010.9
20260903081600 70 240 3.0 9.0 0.00 0.26 0.00 97 1011.0
20260903080056 70 229 4.0 11.0 0.00 0.26 0.00 97 1011.0
20260903074602 70 233 5.0 10.0 0.00 0.26 0.00 97 1011.1
20260903073104 70 264 6.0 12.0 0.00 0.26 0.00 97 1011.2
20260903071554 69 214 4.0 9.0 0.00 0.26 0.00 97 1011.3
20260903070054 70 174 4.0 10.0 0.00 0.26 0.00 96 1011.1
20260903064552 70 207 5.0 12.0 0.00 0.26 0.00 96 1011.3
20260903063051 70 256 5.0 11.0 0.00 0.26 0.00 96 1011.3
20260903061551 70 239 8.0 13.0 0.00 0.26 0.00 96 1011.4
20260903060049 70 221 6.0 14.0 0.00 0.26 0.00 96 1011.3
20260903054546 69 236 5.0 9.0 0.00 0.26 0.00 96 1011.3
20260903053044 69 219 3.0 8.0 0.00 0.26 0.00 95 1011.2
20260903051547 70 226 4.0 7.0 0.00 0.26 0.00 95 1011.0
20260903050042 70 244 4.0 9.0 0.00 0.26 0.00 94 1011.2
20260903044538 70 175 5.0 11.0 0.00 0.26 0.00 94 1011.0
20260903043036 70 230 3.0 10.0 0.00 0.26 0.00 94 1011.3
20260903041535 70 248 4.0 8.0 0.00 0.26 0.00 94 1011.3
20260903040033 70 250 4.0 9.0 0.00 0.26 0.00 94 1011.4
20260903034537 70 240 2.0 8.0 0.00 0.26 0.26 95 1011.2
20260903033038 70 276 3.0 12.0 0.00 0.26 0.26 95 1011.1
20260903031534 70 246 5.0 12.0 0.00 0.26 0.26 95 1011.1
20260903030031 70 268 7.0 11.0 0.01 0.26 0.26 96 1011.1
20260903024530 70 242 8.0 15.0 0.05 0.26 0.26 97 1011.2
20260903023028 70 237 7.0 20.0 0.17 0.26 0.26 96 1010.8
20260903021535 71 229 12.0 21.0 0.23 0.26 0.26 97 1010.7
20260903020027 71 239 6.0 15.0 0.23 0.25 0.25 98 1010.7
20260903014526 71 159 7.0 18.0 0.19 0.21 0.21 97 1010.8
20260903013025 71 221 8.0 19.0 0.07 0.09 0.09 96 1011.2
20260903011522 73 214 7.0 12.0 0.01 0.03 0.03 93 1010.7
20260903010022 73 131 5.0 10.0 0.01 0.02 0.02 92 1010.0
20260903004527 73 160 2.0 5.0 0.02 0.02 0.02 93 1010.7
20260903003018 73 214 1.0 3.0 0.02 0.02 0.02 93 1010.9
20260903001517 73 207 0.0 3.0 0.02 0.02 0.02 92 1010.8
20260903000017 74 214 0.0 2.0 0.01 0.01 0.01 90 1010.8
20260902234517 75 235 0.0 5.0 0.00 0.00 0.00 88 1011.0
20260902233015 75 224 2.0 6.0 0.00 0.00 0.00 87 1011.5
20260902231518 75 193 1.0 3.0 0.00 0.00 0.00 87 1011.3
20260902230013 76 214 1.0 5.0 0.00 0.00 0.00 86 1011.1
20260902224513 76 191 1.0 5.0 0.00 0.00 0.00 86 1010.9
20260902223013 76 147 3.0 6.0 0.00 0.00 0.00 86 1010.8
20260902221516 76 149 1.0 5.0 0.00 0.00 0.00 86 1010.9
20260902220009 76 162 1.0 5.0 0.00 0.00 0.00 86 1011.1
20260902214507 76 161 2.0 6.0 0.00 0.00 0.00 86 1011.4
20260902213006 77 124 0.0 5.0 0.00 0.00 0.00 85 1011.6
20260902211505 77 154 2.0 6.0 0.00 0.00 0.00 83 1011.7
20260902210001 77 204 2.0 8.0 0.00 0.00 0.00 82 1012.5
20260902204600 78 210 4.0 11.0 0.00 0.00 0.00 81 1012.9
20260902203059 78 224 6.0 10.0 0.00 0.00 0.00 80 1013.2
20260902201559 78 175 3.0 10.0 0.00 0.00 0.00 80 1012.9
20260902200057 78 214 5.0 12.0 0.00 0.00 0.00 78 1013.3
20260902194556 79 227 5.0 11.0 0.00 0.00 0.00 78 1013.4
20260902193057 79 224 7.0 12.0 0.00 0.00 0.00 78 1013.5
20260902191601 79 239 11.0 20.0 0.00 0.00 0.00 77 1013.4
20260902190057 80 161 9.0 17.0 0.00 0.00 0.00 76 1013.6
20260902184617 79 245 7.0 17.0 0.00 0.00 0.00 76 1013.4
20260902183111 79 224 8.0 15.0 0.00 0.00 0.00 76 1013.4
20260902181552 79 236 9.0 15.0 0.00 0.00 0.00 76 1014.0
20260902180051 79 248 6.0 12.0 0.00 0.00 0.00 75 1013.4
20260902174549 78 220 5.0 10.0 0.00 0.00 0.00 77 1013.8
20260902173048 79 244 5.0 14.0 0.00 0.00 0.00 76 1014.2
20260902171548 80 192 8.0 13.0 0.00 0.00 0.00 75 1014.4